New Bedford, MA

5:56 AM EDT on May 21, 2018 (GMT -0400)
New Bedford Regional

Weather History for KEWB - January, 2014

Change the Weather History Date:

Saturday, January 11, 2014

  Actual Average Record
Temperature  
Mean Temperature 48 °F -  
Max Temperature 57 °F 35 °F 62 °F (1975)
Min Temperature 39 °F 21 °F 0 °F (1968)
Degree Days  
Heating Degree Days 17    
Moisture  
Dew Point 51 °F    
Average Humidity 94    
Maximum Humidity 100    
Minimum Humidity 86    
Precipitation  
Precipitation 1.13 in - - ()
Sea Level Pressure  
Sea Level Pressure 29.75 in    
Wind  
Wind Speed 12 mph (South)    
Max Wind Speed 32 mph    
Max Gust Speed 47 mph    
Visibility 6 miles    
Events Fog , Rain    
Averages and records for this station are not official NWS values.
T = Trace of Precipitation, MM = Missing Value Source: NWS Daily Summary

Daily Weather History Graph

Daily Weather History Graph

Search for Another Location

Airport or City:

Astronomy

Jan. 11, 2014 Rise Set
Actual Time 7:09 AM EST 4:33 PM EST
Civil Twilight 6:39 AM EST 5:04 PM EST
Nautical Twilight 6:04 AM EST 5:39 PM EST
Astronomical Twilight 5:31 AM EST 6:12 PM EST
Moon 1:16 PM EST (1/11) 3:11 AM EST (1/11)
Length of Visible Light 10h 25m
Length of Day
9h 24m
Waxing Gibbous, 83% of the Moon is Illuminated
Jan 11
Waxing Gibbous
Jan 15
Full
Jan 24
Last Quarter
Jan 30
New
Feb 6
First Quarter

Hourly Weather History & Observations

Time (EST) Temp. Windchill Dew Point Humidity Pressure Visibility Wind Dir Wind Speed Gust Speed Precip Events Conditions
12:28 AM 39.9 °F - 39.9 °F 100% 30.25 in 0.5 mi Calm Calm - 0.02 in Fog , Rain Light Rain
12:40 AM 39.9 °F - 39.9 °F 100% 30.25 in 0.5 mi Calm Calm - 0.02 in Fog , Rain Light Rain
12:53 AM 39.9 °F - 39.0 °F 97% 30.25 in 0.5 mi Calm Calm - 0.02 in Fog , Rain Light Rain
12:57 AM 39.9 °F - 39.0 °F 97% 30.24 in 0.5 mi Calm Calm - 0.01 in Fog , Rain Light Rain
1:05 AM 39.9 °F - 39.0 °F 97% 30.24 in 0.5 mi Calm Calm - 0.01 in Fog , Rain Light Rain
1:22 AM 39.9 °F - 39.0 °F 97% 30.23 in 0.8 mi Calm Calm - 0.01 in   Mist
1:53 AM 39.0 °F - 37.9 °F 96% 30.23 in 0.5 mi Calm Calm - 0.01 in Fog Fog
2:37 AM 45.0 °F 42.6 °F 44.1 °F 97% 30.21 in 1.2 mi SSE 4.6 mph - 0.00 in   Overcast
2:53 AM 46.0 °F 43.1 °F 45.0 °F 96% 30.20 in 1.8 mi South 5.8 mph - 0.00 in   Overcast
2:57 AM 45.0 °F 43.5 °F 45.0 °F 100% 30.20 in 3.0 mi South 3.5 mph - N/A   Overcast
3:53 AM 46.9 °F - 46.0 °F 97% 30.17 in 10.0 mi SSE 4.6 mph - N/A   Overcast
4:53 AM 48.0 °F - 46.0 °F 93% 30.14 in 10.0 mi South 8.1 mph - N/A   Overcast
5:53 AM 50.0 °F - 46.0 °F 86% 30.11 in 10.0 mi South 10.4 mph - 0.00 in   Overcast
6:53 AM 50.0 °F - 48.0 °F 93% 30.07 in 10.0 mi South 15.0 mph - N/A   Overcast
7:37 AM 51.1 °F - 48.0 °F 89% 30.04 in 10.0 mi South 12.7 mph - N/A   Overcast
7:53 AM 52.0 °F - 48.9 °F 89% 30.02 in 10.0 mi SSE 13.8 mph - N/A   Overcast
8:04 AM 52.0 °F - 48.9 °F 89% 30.02 in 10.0 mi SSE 16.1 mph 21.9 mph N/A   Overcast
8:22 AM 52.0 °F - 48.9 °F 89% 30.01 in 10.0 mi South 15.0 mph 25.3 mph N/A   Overcast
8:37 AM 53.1 °F - 50.0 °F 89% 29.99 in 10.0 mi South 17.3 mph 24.2 mph N/A   Overcast
8:53 AM 54.0 °F - 51.1 °F 90% 29.99 in 10.0 mi South 17.3 mph 27.6 mph N/A   Overcast
9:34 AM 55.0 °F - 52.0 °F 89% 29.95 in 10.0 mi South 21.9 mph 29.9 mph 0.00 in Rain Light Rain
9:53 AM 55.9 °F - 53.1 °F 90% 29.94 in 10.0 mi South 18.4 mph 34.5 mph 0.00 in   Overcast
10:32 AM 57.0 °F - 53.1 °F 87% 29.91 in 10.0 mi South 24.2 mph 34.5 mph N/A   Mostly Cloudy
10:53 AM 55.9 °F - 53.1 °F 90% 29.88 in 10.0 mi South 23.0 mph 38.0 mph N/A   Overcast
11:53 AM 55.9 °F - 52.0 °F 87% 29.83 in 10.0 mi South 17.3 mph 35.7 mph 0.00 in   Overcast
12:05 PM 55.0 °F - 52.0 °F 89% 29.81 in 10.0 mi SSW 25.3 mph 33.4 mph N/A   Overcast
12:43 PM 55.9 °F - 53.1 °F 90% 29.77 in 10.0 mi South 21.9 mph 32.2 mph N/A   Overcast
12:53 PM 57.0 °F - 54.0 °F 89% 29.75 in 5.0 mi South 26.5 mph 34.5 mph 0.01 in Rain Light Rain
1:15 PM 55.9 °F - 54.0 °F 93% 29.72 in 5.0 mi South 23.0 mph 38.0 mph 0.01 in Rain Light Rain
1:31 PM 55.0 °F - 53.1 °F 93% 29.71 in 7.0 mi South 25.3 mph 39.1 mph 0.01 in Rain Light Rain
1:53 PM 55.0 °F - 54.0 °F 96% 29.70 in 7.0 mi South 21.9 mph 38.0 mph 0.01 in   Overcast
2:25 PM 55.9 °F - 54.0 °F 93% 29.66 in 9.0 mi South 23.0 mph 34.5 mph N/A   Overcast
2:53 PM 57.0 °F - 55.0 °F 93% 29.63 in 6.0 mi South 19.6 mph 28.8 mph 0.01 in Rain Light Rain
3:00 PM 57.0 °F - 55.9 °F 96% 29.61 in 7.0 mi South 24.2 mph 33.4 mph 0.00 in Rain Light Rain
3:38 PM 55.9 °F - 55.0 °F 97% 29.58 in 3.0 mi South 28.8 mph 38.0 mph 0.01 in Rain Light Rain
3:53 PM 55.0 °F - 54.0 °F 96% 29.58 in 4.0 mi South 21.9 mph 35.7 mph 0.01 in Rain Light Rain
4:35 PM 55.9 °F - 55.0 °F 97% 29.55 in 2.0 mi South 20.7 mph 35.7 mph 0.03 in   Overcast
4:53 PM 57.0 °F - 55.0 °F 93% 29.53 in 2.0 mi South 21.9 mph 42.6 mph 0.16 in Rain Heavy Rain
4:55 PM 57.0 °F - 55.9 °F 96% 29.52 in 1.8 mi South 25.3 mph 43.7 mph 0.01 in Rain Heavy Rain
5:00 PM 55.9 °F - 55.9 °F 100% 29.52 in 2.5 mi South 21.9 mph 43.7 mph 0.01 in Rain Light Rain
5:14 PM 55.9 °F - 55.0 °F 97% 29.50 in 1.5 mi South 31.1 mph 44.9 mph 0.01 in   Overcast
5:42 PM 55.9 °F - 55.0 °F 97% 29.48 in 0.8 mi South 28.8 mph 40.3 mph 0.01 in   Mist
5:53 PM 55.9 °F - 55.0 °F 97% 29.46 in 0.8 mi South 26.5 mph 39.1 mph 0.01 in   Mist
6:09 PM 55.9 °F - 55.0 °F 97% 29.46 in 1.0 mi SSW 27.6 mph 38.0 mph 0.07 in Rain Light Rain
6:23 PM 57.0 °F - 55.9 °F 96% 29.44 in 3.0 mi South 26.5 mph 41.4 mph 0.16 in Rain Rain
6:36 PM 57.0 °F - 55.9 °F 96% 29.42 in 9.0 mi South 28.8 mph 40.3 mph 0.16 in Rain Light Rain
6:44 PM 55.9 °F - 55.9 °F 100% 29.42 in 2.5 mi SSW 32.2 mph 43.7 mph 0.16 in Rain Light Rain
6:53 PM 57.0 °F - 55.9 °F 96% 29.41 in 1.2 mi SSW 31.1 mph 42.6 mph 0.16 in Rain Light Rain
7:12 PM 57.0 °F - 55.9 °F 96% 29.38 in 3.0 mi South 25.3 mph 38.0 mph 0.15 in Rain Light Rain
7:53 PM 57.9 °F - 57.0 °F 97% 29.35 in 2.0 mi South 27.6 mph 47.2 mph 0.31 in Rain Rain
8:00 PM 57.0 °F - 55.9 °F 96% 29.40 in 1.0 mi SW 24.2 mph 42.6 mph 0.24 in Rain Heavy Rain
8:15 PM 57.0 °F - 55.0 °F 93% 29.41 in 3.0 mi SW 16.1 mph 29.9 mph 0.37 in Rain Rain
8:21 PM 57.0 °F - 55.0 °F 93% 29.40 in 6.0 mi SW 13.8 mph - 0.37 in Rain Light Rain
8:53 PM 55.0 °F - 54.0 °F 96% 29.40 in 10.0 mi SSW 10.4 mph - 0.39 in   Overcast
9:06 PM 55.0 °F - 53.1 °F 93% 29.41 in 10.0 mi SSW 10.4 mph - N/A   Overcast
9:53 PM 54.0 °F - 52.0 °F 93% 29.43 in 9.0 mi SW 11.5 mph - 0.02 in Rain Light Rain
10:26 PM 53.1 °F - 52.0 °F 96% 29.39 in 10.0 mi SSW 8.1 mph - 0.01 in Rain Light Rain
10:53 PM 52.0 °F - 50.0 °F 93% 29.35 in 10.0 mi South 10.4 mph - 0.01 in   Overcast
11:37 PM 48.9 °F - 48.0 °F 97% 29.35 in 10.0 mi SSW 11.5 mph - 0.00 in   Mostly Cloudy
11:53 PM 50.0 °F - 48.0 °F 93% 29.34 in 10.0 mi SW 5.8 mph - 0.00 in   Mostly Cloudy